Weather History for Madrid Cuatro Vientos, Spain

Change the Weather History Date:

Tuesday, January 1, 2013

  Actual Average Record
Temperature  
Mean Temperature 44 °F -  
Max Temperature 51 °F 48 °F 55 °F (2005)
Min Temperature 37 °F 36 °F 26 °F (2008)
Degree Days  
Heating Degree Days 21    
Moisture  
Dew Point 41 °F    
Average Humidity 90    
Maximum Humidity 100    
Minimum Humidity 62    
Precipitation  
Precipitation 0.00 in - - ()
Sea Level Pressure  
Sea Level Pressure 30.14 in    
Wind  
Wind Speed 2 mph ()    
Max Wind Speed 10 mph    
Max Gust Speed 13 mph    
Visibility 4.8 miles    
Events Fog    
Averages and records for this station are not official NWS values.
T = Trace of Precipitation, MM = Missing Value Source: Averaged Metar Reports

Daily Weather History Graph

Daily Weather History Graph

Search for Another Location

Airport:

Trip Planner

Search our weather history database for the weather conditions in past years. The results will help you decide how hot, cold, wet, or windy it might be!

Date:

Astronomy

Jan. 01, 2013 Rise Set
Actual Time 8:38 AM CET 5:59 PM CET
Civil Twilight 8:07 AM CET 6:30 PM CET
Nautical Twilight 7:33 AM CET 7:04 PM CET
Astronomical Twilight 7:00 AM CET 7:37 PM CET
Moon 10:16 PM CET (1/1) 10:42 AM CET (1/1)
Length of Visible Light 10h 22m
Length of Day
9h 21m
Waning Gibbous, 85% of the Moon is Illuminated
Jan 1
Waning Gibbous
Jan 5
Last Quarter
Jan 11
New
Jan 19
First Quarter
Jan 27
Full

Hourly Weather History & Observations

Time (CET) Temp. Windchill Dew Point Humidity Pressure Visibility Wind Dir Wind Speed Gust Speed Precip Events Conditions
7:00 AM 39.2 °F 35.9 °F 39.2 °F 100% 30.09 in 6.2 mi WSW 4.6 mph - N/A   Mostly Cloudy
7:30 AM 39.2 °F - 39.2 °F 100% 30.09 in 6.2 mi Calm Calm - N/A   Mostly Cloudy
8:00 AM 39.2 °F 32.5 °F 39.2 °F 100% 30.09 in 6.2 mi WSW 10.4 mph - N/A   Mostly Cloudy
8:30 AM 39.2 °F - 39.2 °F 100% 30.09 in 0.2 mi Variable 1.2 mph - N/A Fog Fog
9:00 AM 37.4 °F 33.8 °F 37.4 °F 100% 30.12 in 0.4 mi West 4.6 mph - N/A Fog Fog
9:30 AM 39.2 °F - 39.2 °F 100% 30.12 in 0.4 mi Variable 1.2 mph - N/A Fog Fog
10:00 AM 39.2 °F 35.9 °F 39.2 °F 100% 30.12 in 0.4 mi WSW 4.6 mph - N/A Fog Fog
10:30 AM 39.2 °F - 39.2 °F 100% 30.15 in 0.9 mi Variable 1.2 mph - N/A   Mostly Cloudy
11:00 AM 39.2 °F - 39.2 °F 100% 30.15 in 0.9 mi Calm Calm - N/A   Mostly Cloudy
11:30 AM 41.0 °F - 41.0 °F 100% 30.15 in 3.7 mi Calm Calm - N/A   Mostly Cloudy
12:00 PM 42.8 °F - 42.8 °F 100% 30.15 in 5.0 mi Calm Calm - N/A   Mostly Cloudy
12:30 PM 42.8 °F - 42.8 °F 100% 30.15 in 6.2 mi Variable 1.2 mph - N/A   Mostly Cloudy
1:00 PM 46.4 °F - 41.0 °F 81% 30.15 in 6.2 mi Variable 1.2 mph - N/A   Scattered Clouds
1:30 PM 46.4 °F - 42.8 °F 87% 30.15 in 6.2 mi Variable 2.3 mph - N/A   Scattered Clouds
2:00 PM 50.0 °F - 41.0 °F 71% 30.15 in 6.2 mi Calm Calm - N/A   Scattered Clouds
2:30 PM 51.8 °F - 39.2 °F 62% 30.12 in 6.2 mi Calm Calm - N/A   Scattered Clouds
3:00 PM 48.2 °F - 41.0 °F 76% 30.12 in 6.2 mi East 3.5 mph - N/A   Scattered Clouds
3:30 PM 48.2 °F - 42.8 °F 82% 30.15 in 6.2 mi East 5.8 mph - N/A   Scattered Clouds
4:00 PM 48.2 °F - 41.0 °F 76% 30.15 in 6.2 mi Variable 2.3 mph - N/A   Scattered Clouds
4:30 PM 48.2 °F - 42.8 °F 82% 30.15 in 6.2 mi Variable 1.2 mph - N/A   Scattered Clouds
5:00 PM 48.2 °F - 41.0 °F 76% 30.15 in 6.2 mi Variable 1.2 mph 12.7 mph N/A   Scattered Clouds
5:30 PM 48.2 °F - 37.4 °F 66% 30.15 in 6.2 mi Variable 1.2 mph - N/A   Scattered Clouds
6:00 PM 46.4 °F - 41.0 °F 81% 30.18 in 6.2 mi Variable 1.2 mph - N/A   Scattered Clouds
6:30 PM 44.6 °F 43.1 °F 41.0 °F 87% 30.18 in 6.2 mi ESE 3.5 mph - N/A   Scattered Clouds
7:00 PM 42.8 °F - 42.8 °F 100% 30.18 in 6.2 mi Calm Calm - N/A   Scattered Clouds
7:30 PM 41.0 °F - 41.0 °F 100% 30.18 in 6.2 mi Calm Calm - N/A   Scattered Clouds
8:00 PM 42.8 °F - 41.0 °F 93% 30.18 in 6.2 mi Calm Calm - N/A   Scattered Clouds